OCN3PP HKMO-HTZA

Flight info

Callsign OCN3PP
Flight time 0h 31m
Altitude 14000
Route IMSIS2A UVUKO DCT OKPOL DCT IMTOM DCT IMVIV
Aircraft A333/H-SDE2E3FGHIJ3J4J5LM1OP2RWXYZ/LB2D1

Departure

Time 2026-04-30 07:14
Airport Moi International Airport (HKMO)

Arrival

Time 2026-04-30 07:46
Airport Abeid Amani Karume International Airport (HTZA)
Time Latitude Longitude Altitude Speed Heading
2026-04-30 06:30 -4.03261 39.60163 206 ft 0 kts 121°
2026-04-30 07:04 -4.03254 39.60152 218 ft 4 kts 117°
2026-04-30 07:04 -4.03244 39.60127 214 ft 4 kts 103°
2026-04-30 07:04 -4.03241 39.60101 213 ft 4 kts 78°
2026-04-30 07:04 -4.03251 39.60079 214 ft 3 kts 32°
2026-04-30 07:05 -4.03254 39.60077 218 ft 0 kts 29°
2026-04-30 07:06 -4.03250 39.60080 214 ft 2 kts 29°
2026-04-30 07:07 -4.03221 39.60096 214 ft 7 kts 29°
2026-04-30 07:07 -4.03163 39.60128 219 ft 12 kts 28°
2026-04-30 07:07 -4.03075 39.60136 212 ft 14 kts 335°
2026-04-30 07:07 -4.03020 39.60055 219 ft 15 kts 299°
2026-04-30 07:08 -4.02965 39.59963 219 ft 16 kts 306°
2026-04-30 07:08 -4.02901 39.59955 218 ft 9 kts 25°
2026-04-30 07:08 -4.02845 39.59985 217 ft 10 kts 29°
2026-04-30 07:08 -4.02771 39.60027 217 ft 14 kts 29°
2026-04-30 07:09 -4.02674 39.60081 218 ft 18 kts 29°
2026-04-30 07:09 -4.02557 39.60147 218 ft 20 kts 29°
2026-04-30 07:09 -4.02426 39.60220 214 ft 23 kts 29°
2026-04-30 07:09 -4.02280 39.60302 215 ft 25 kts 29°
2026-04-30 07:10 -4.02122 39.60391 216 ft 27 kts 29°
2026-04-30 07:10 -4.01952 39.60485 219 ft 29 kts 29°
2026-04-30 07:10 -4.01775 39.60585 223 ft 30 kts 29°
2026-04-30 07:10 -4.01593 39.60686 221 ft 30 kts 29°
2026-04-30 07:11 -4.01427 39.60733 221 ft 13 kts 347°
2026-04-30 07:11 -4.01399 39.60723 216 ft 1 kts 337°
2026-04-30 07:12 -4.01397 39.60722 215 ft 2 kts 337°
2026-04-30 07:12 -4.01375 39.60712 221 ft 5 kts 328°
2026-04-30 07:12 -4.01347 39.60673 220 ft 9 kts 297°
2026-04-30 07:13 -4.01342 39.60628 223 ft 4 kts 236°
2026-04-30 07:13 -4.01368 39.60609 222 ft 5 kts 213°
2026-04-30 07:13 -4.01383 39.60600 223 ft 0 kts 208°
2026-04-30 07:14 -4.01460 39.60558 219 ft 42 kts 209°
2026-04-30 07:14 -4.01909 39.60309 216 ft 104 kts 209°
2026-04-30 07:14 -4.02705 39.59860 216 ft 156 kts 210°
2026-04-30 07:14 -4.03693 39.59282 803 ft 158 kts 212°
2026-04-30 07:15 -4.04606 39.58769 1712 ft 145 kts 205°
2026-04-30 07:15 -4.05517 39.58313 2233 ft 163 kts 205°
2026-04-30 07:15 -4.06648 39.57693 2082 ft 207 kts 207°
2026-04-30 07:15 -4.07977 39.56947 2022 ft 226 kts 207°
2026-04-30 07:16 -4.09350 39.56170 2018 ft 226 kts 208°
2026-04-30 07:16 -4.10716 39.55399 2018 ft 226 kts 207°
2026-04-30 07:16 -4.12094 39.54623 2013 ft 226 kts 208°
2026-04-30 07:16 -4.13461 39.53856 2048 ft 226 kts 207°
2026-04-30 07:17 -4.14834 39.53087 2380 ft 225 kts 207°
2026-04-30 07:17 -4.16199 39.52323 2841 ft 225 kts 206°
2026-04-30 07:17 -4.18969 39.50773 3839 ft 229 kts 206°
2026-04-30 07:18 -4.20356 39.49999 4360 ft 228 kts 207°
2026-04-30 07:18 -4.21752 39.49221 4839 ft 232 kts 206°
2026-04-30 07:18 -4.23180 39.48419 5301 ft 236 kts 206°
2026-04-30 07:18 -4.24644 39.47684 5768 ft 235 kts 197°
2026-04-30 07:19 -4.26251 39.47432 6262 ft 234 kts 180°
2026-04-30 07:19 -4.27885 39.47487 6734 ft 236 kts 176°
2026-04-30 07:19 -4.29536 39.47596 7200 ft 239 kts 175°
2026-04-30 07:19 -4.31210 39.47711 7621 ft 248 kts 175°
2026-04-30 07:20 -4.32991 39.47829 8071 ft 266 kts 175°
2026-04-30 07:20 -4.34900 39.47951 8431 ft 289 kts 176°
2026-04-30 07:20 -4.37008 39.48082 8759 ft 310 kts 176°
2026-04-30 07:20 -4.39200 39.48215 9059 ft 330 kts 176°
2026-04-30 07:21 -4.41590 39.48360 9361 ft 348 kts 176°
2026-04-30 07:21 -4.44019 39.48507 9760 ft 361 kts 176°
2026-04-30 07:21 -4.46562 39.48661 10290 ft 367 kts 176°
2026-04-30 07:21 -4.49120 39.48816 10845 ft 375 kts 176°
2026-04-30 07:22 -4.54350 39.49131 12158 ft 379 kts 176°
2026-04-30 07:22 -4.57007 39.49291 12791 ft 382 kts 176°
2026-04-30 07:22 -4.59684 39.49453 13276 ft 390 kts 177°
2026-04-30 07:23 -4.62411 39.49617 13864 ft 394 kts 176°
2026-04-30 07:23 -4.65158 39.49783 14308 ft 400 kts 177°
2026-04-30 07:23 -4.67937 39.49951 14907 ft 398 kts 177°
2026-04-30 07:23 -4.70615 39.49931 15122 ft 373 kts 186°
2026-04-30 07:24 -4.73125 39.49567 14922 ft 360 kts 191°
2026-04-30 07:24 -4.75566 39.49020 14373 ft 359 kts 194°
2026-04-30 07:24 -4.77960 39.48380 14093 ft 350 kts 195°
2026-04-30 07:24 -4.80256 39.47738 14025 ft 335 kts 195°
2026-04-30 07:25 -4.82444 39.47132 14008 ft 318 kts 195°
2026-04-30 07:25 -4.84534 39.46569 14025 ft 307 kts 194°
2026-04-30 07:25 -4.86595 39.46031 14028 ft 306 kts 194°
2026-04-30 07:25 -4.88681 39.45500 14032 ft 314 kts 194°
2026-04-30 07:26 -4.90782 39.44973 14025 ft 309 kts 193°
2026-04-30 07:26 -4.92871 39.44454 14028 ft 312 kts 193°
2026-04-30 07:26 -4.95001 39.43927 14032 ft 317 kts 193°
2026-04-30 07:26 -4.97148 39.43396 14028 ft 319 kts 193°
2026-04-30 07:27 -4.99325 39.42856 14035 ft 330 kts 193°
2026-04-30 07:27 -5.01605 39.42290 14031 ft 343 kts 193°
2026-04-30 07:27 -5.03934 39.41711 14029 ft 346 kts 193°
2026-04-30 07:27 -5.06276 39.41128 14029 ft 347 kts 193°
2026-04-30 07:28 -5.08628 39.40543 14034 ft 348 kts 193°
2026-04-30 07:28 -5.10986 39.39955 13933 ft 352 kts 193°
2026-04-30 07:28 -5.13330 39.39371 13908 ft 340 kts 193°
2026-04-30 07:28 -5.15590 39.38807 13895 ft 331 kts 193°
2026-04-30 07:29 -5.17837 39.38248 13584 ft 336 kts 193°
2026-04-30 07:29 -5.20107 39.37682 13125 ft 335 kts 193°
2026-04-30 07:29 -5.22332 39.37128 12705 ft 333 kts 193°
2026-04-30 07:29 -5.24570 39.36571 12275 ft 330 kts 193°
2026-04-30 07:30 -5.29005 39.35466 11467 ft 327 kts 193°
2026-04-30 07:30 -5.31202 39.34919 11048 ft 325 kts 193°
2026-04-30 07:30 -5.33374 39.34376 10824 ft 314 kts 192°
2026-04-30 07:31 -5.35426 39.33863 10734 ft 293 kts 193°
2026-04-30 07:31 -5.37347 39.33382 10605 ft 279 kts 192°
2026-04-30 07:31 -5.39189 39.32923 10499 ft 271 kts 192°
2026-04-30 07:31 -5.41015 39.32468 10376 ft 267 kts 192°
2026-04-30 07:32 -5.42814 39.32021 10168 ft 267 kts 191°
2026-04-30 07:32 -5.44623 39.31572 9847 ft 268 kts 191°
2026-04-30 07:32 -5.46437 39.31122 9519 ft 269 kts 192°
2026-04-30 07:32 -5.48249 39.30671 9228 ft 268 kts 192°
2026-04-30 07:33 -5.50056 39.30221 8924 ft 268 kts 192°
2026-04-30 07:33 -5.51862 39.29771 8638 ft 267 kts 192°
2026-04-30 07:33 -5.53658 39.29323 8339 ft 265 kts 192°
2026-04-30 07:33 -5.55442 39.28878 8052 ft 264 kts 192°
2026-04-30 07:34 -5.57219 39.28435 7751 ft 263 kts 192°
2026-04-30 07:34 -5.58989 39.27993 7460 ft 261 kts 192°
2026-04-30 07:34 -5.60743 39.27556 7162 ft 260 kts 192°
2026-04-30 07:34 -5.62496 39.27119 6876 ft 259 kts 191°
2026-04-30 07:35 -5.64248 39.26682 6575 ft 258 kts 191°
2026-04-30 07:35 -5.65984 39.26249 6287 ft 257 kts 191°
2026-04-30 07:35 -5.67715 39.25818 5989 ft 257 kts 191°
2026-04-30 07:35 -5.69453 39.25384 5698 ft 256 kts 191°
2026-04-30 07:36 -5.71179 39.24954 5403 ft 255 kts 191°
2026-04-30 07:36 -5.72899 39.24525 5112 ft 256 kts 191°
2026-04-30 07:36 -5.74625 39.24095 4806 ft 255 kts 192°
2026-04-30 07:36 -5.76315 39.23673 4513 ft 253 kts 192°
2026-04-30 07:37 -5.78042 39.23242 4211 ft 251 kts 191°
2026-04-30 07:37 -5.79727 39.22821 3928 ft 250 kts 191°
2026-04-30 07:37 -5.81411 39.22400 3649 ft 248 kts 191°
2026-04-30 07:37 -5.83082 39.21983 3353 ft 247 kts 192°
2026-04-30 07:38 -5.84725 39.21572 3198 ft 238 kts 192°
2026-04-30 07:38 -5.86292 39.21179 3114 ft 227 kts 192°
2026-04-30 07:38 -5.87785 39.20805 2975 ft 221 kts 192°
2026-04-30 07:38 -5.89280 39.20433 2696 ft 222 kts 192°
2026-04-30 07:39 -5.90806 39.20054 2446 ft 223 kts 192°
2026-04-30 07:39 -5.92291 39.19740 2244 ft 219 kts 184°
2026-04-30 07:39 -5.93805 39.19704 2087 ft 219 kts 178°
2026-04-30 07:39 -5.95329 39.19793 2054 ft 214 kts 174°
2026-04-30 07:40 -5.96748 39.19924 2058 ft 196 kts 174°
2026-04-30 07:40 -5.98051 39.20053 2051 ft 181 kts 174°
2026-04-30 07:40 -5.99268 39.20176 2061 ft 173 kts 173°
2026-04-30 07:40 -6.00464 39.20298 2068 ft 173 kts 173°
2026-04-30 07:41 -6.01659 39.20420 2066 ft 172 kts 173°
2026-04-30 07:41 -6.02841 39.20542 2064 ft 170 kts 174°
2026-04-30 07:41 -6.04023 39.20661 2066 ft 171 kts 174°
2026-04-30 07:41 -6.05216 39.20781 2067 ft 173 kts 174°
2026-04-30 07:42 -6.06414 39.20901 2066 ft 173 kts 174°
2026-04-30 07:42 -6.07568 39.21016 2047 ft 160 kts 174°
2026-04-30 07:42 -6.08640 39.21123 2065 ft 150 kts 174°
2026-04-30 07:42 -6.09680 39.21228 2066 ft 151 kts 174°
2026-04-30 07:43 -6.10728 39.21334 2039 ft 151 kts 174°
2026-04-30 07:43 -6.11770 39.21439 1841 ft 149 kts 174°
2026-04-30 07:43 -6.12762 39.21539 1653 ft 137 kts 174°
2026-04-30 07:43 -6.13687 39.21632 1478 ft 133 kts 174°
2026-04-30 07:44 -6.14614 39.21725 1308 ft 134 kts 174°
2026-04-30 07:44 -6.15539 39.21819 1128 ft 135 kts 174°
2026-04-30 07:44 -6.16473 39.21913 961 ft 135 kts 175°
2026-04-30 07:44 -6.17408 39.22007 789 ft 134 kts 174°
2026-04-30 07:45 -6.18332 39.22100 630 ft 134 kts 175°
2026-04-30 07:45 -6.19265 39.22194 443 ft 135 kts 175°
2026-04-30 07:45 -6.20191 39.22285 278 ft 132 kts 176°
2026-04-30 07:45 -6.21091 39.22373 100 ft 129 kts 174°
2026-04-30 07:46 -6.21936 39.22457 60 ft 97 kts 174°
2026-04-30 07:46 -6.22462 39.22517 55 ft 66 kts 174°
2026-04-30 07:46 -6.22863 39.22556 52 ft 44 kts 174°
2026-04-30 07:46 -6.22989 39.22508 51 ft 16 kts 252°
2026-04-30 07:47 -6.22985 39.22416 50 ft 13 kts 297°
2026-04-30 07:47 -6.22917 39.22389 52 ft 11 kts 356°
2026-04-30 07:47 -6.22843 39.22384 53 ft 11 kts 356°
2026-04-30 07:47 -6.22768 39.22377 52 ft 11 kts 353°
2026-04-30 07:48 -6.22695 39.22369 55 ft 11 kts 355°
2026-04-30 07:48 -6.22618 39.22362 55 ft 11 kts 355°
2026-04-30 07:48 -6.22542 39.22354 57 ft 11 kts 353°
2026-04-30 07:48 -6.22470 39.22346 56 ft 10 kts 353°
2026-04-30 07:49 -6.22401 39.22337 54 ft 10 kts 353°
2026-04-30 07:49 -6.22335 39.22331 54 ft 9 kts 355°
2026-04-30 07:49 -6.22274 39.22326 54 ft 9 kts 355°
2026-04-30 07:49 -6.22216 39.22320 53 ft 8 kts 355°
2026-04-30 07:50 -6.22162 39.22315 54 ft 8 kts 354°
2026-04-30 07:50 -6.22112 39.22310 58 ft 7 kts 354°
2026-04-30 07:50 -6.22068 39.22306 57 ft 6 kts 354°
2026-04-30 07:50 -6.22031 39.22302 56 ft 5 kts 354°
2026-04-30 07:51 -6.21993 39.22299 59 ft 6 kts 354°
2026-04-30 07:51 -6.21952 39.22295 58 ft 6 kts 354°
2026-04-30 07:51 -6.21909 39.22290 58 ft 7 kts 354°
2026-04-30 07:51 -6.21867 39.22274 55 ft 5 kts 313°
2026-04-30 07:52 -6.21860 39.22257 52 ft 3 kts 287°
2026-04-30 07:52 -6.21859 39.22245 52 ft 0 kts 272°
2026-04-30 07:52 -6.21859 39.22237 52 ft 3 kts 270°
2026-04-30 07:52 -6.21860 39.22213 54 ft 2 kts 266°
2026-04-30 07:53 -6.21861 39.22207 55 ft 0 kts 265°